{"data":{"norad_id":69367,"epoch":"2026-09-19T23:01:27.491808Z","epoch_age_seconds":75610,"freshness":"FRESH","line1":"1 69367U 26123Q   26262.95934597  .00013407  00000+0  40719-3 0  9992","line2":"2 69367  53.1600 144.4934 0000542 148.8385 211.2650 15.34402091 16783","mean_motion":15.34402091,"eccentricity":5.42e-5,"inclination_deg":53.16,"raan_deg":144.4934,"arg_perigee_deg":148.8385,"mean_anomaly_deg":211.265,"bstar":0.00040719,"rev_number":1678,"period_min":93.847630190697,"perigee_km":462.32625211733,"apogee_km":463.06779852568,"semimajor_km":6840.8340253215,"source":"CELESTRAK","updated_at":"2026-09-20T09:00:44.167203Z"}}